User: anonymous   Login
Location: Columbia
(38.9520°N, 92.3340°W)
Time: 12:42:17
(UTC-05:00)
Language:

Cosmos 1603 - Orbit

View from above orbital plane
View from above orbital plane
View from above satellite
View from above satellite

Ground track
Ground track

The orbit data is extracted from the following two-line orbital elements,

1 15333U 84106A   16144.14619063  .00000047  00000-0  49650-4 0  9999
2 15333  71.0267 189.0919 0017447  79.0882 281.2202 14.14040183633122
Epoch (UTC): 23 May 2016 03:30:30
Eccentricity: 0.0017447
inclination: 71.0267°
perigee height: 833 km
apogee height: 858 km
right ascension of ascending node: 189.0919°
argument of perigee: 79.0882°
revolutions per day: 14.14040183
mean anomaly at epoch: 281.2202°
orbit number at epoch: 63312

The dashed part of the orbit path shows where the satellite is in the earth's shadow,  

DLR